This is the latest recevied weather packets stored in our database for station/object K5FEP. If no packets are shown the sender has not sent any weather packets the latest 10 day(s).
| Time | Temp. | Humidity | Pressure | Rain* | Wind** | Luminosity | Snow |
|---|---|---|---|---|---|---|---|
| 1788284706 | 35° C | 42% | 1016.7 hPa | 0 mm | - | 204 W/m² | - |
| 1788284402 | 35° C | 41% | 1016.8 hPa | 0 mm | - | 344 W/m² | - |
| 1788284097 | 35° C | 41% | 1016.7 hPa | 0 mm | - | 249 W/m² | - |
| 1788283793 | 35.56° C | 39% | 1016.9 hPa | 0 mm | - | 710 W/m² | - |
| 1788283488 | 35.56° C | 38% | 1016.9 hPa | 0 mm | - | 974 W/m² | - |
| 1788283186 | 35.56° C | 38% | 1016.7 hPa | 0 mm | - | 987 W/m² | - |
| 1788282885 | 36.11° C | 39% | 1017 hPa | 0 mm | - | 991 W/m² | - |
| 1788282584 | 35.56° C | 39% | 1016.9 hPa | 0 mm | - | 998 W/m² | - |
| 1788282279 | 35.56° C | 39% | 1017 hPa | 0 mm | - | 978 W/m² | - |
| 1788281978 | 35.56° C | 39% | 1017.1 hPa | 0 mm | - | 963 W/m² | - |
| 1788281673 | 35.56° C | 40% | 1017.1 hPa | 0 mm | - | 925 W/m² | - |
| 1788281370 | 35.56° C | 39% | 1017.2 hPa | 0 mm | - | 908 W/m² | - |
| 1788281070 | 35° C | 40% | 1017.4 hPa | 0 mm | - | 899 W/m² | - |
| 1788280765 | 34.44° C | 41% | 1017.3 hPa | 0 mm | - | 888 W/m² | - |
| 1788280460 | 34.44° C | 41% | 1017.5 hPa | 0 mm | - | 891 W/m² | - |
| 1788280159 | 35° C | 39% | 1017.3 hPa | 0 mm | - | 889 W/m² | - |
| 1788279854 | 35° C | 42% | 1017.5 hPa | 0 mm | - | 881 W/m² | - |
| 1788279554 | 34.44° C | 40% | 1017.5 hPa | 0 mm | - | 873 W/m² | - |
| 1788279253 | 34.44° C | 43% | 1017.6 hPa | 0 mm | - | 867 W/m² | - |
| 1788278949 | 34.44° C | 44% | 1017.8 hPa | 0 mm | - | 864 W/m² | - |
| 1788278645 | 35° C | 45% | 1017.7 hPa | 0 mm | - | 856 W/m² | - |
| 1788278344 | 34.44° C | 45% | 1018.1 hPa | 0 mm | - | 843 W/m² | - |
| 1788278044 | 34.44° C | 45% | 1017.9 hPa | 0 mm | - | 832 W/m² | - |
| 1788277741 | 34.44° C | 45% | 1018 hPa | 0 mm | - | 827 W/m² | - |
| 1788277440 | 35° C | 45% | 1018.1 hPa | 0 mm | - | 814 W/m² | - |
* Rain latest hour (hover to see other rain measurements)
** Current wind speed in m/s (hover to see current wind gust speed)